Theta_e
305 306 309 313 316 320 325 329 331 331 330 326 326 327 327 329 328 326 325 325 325 324 324 325 328 331 333 342 345 342 341 343 345 347 348 345 341 342 341 340 341 343 344 344 340 332 330 332 332 331 332 335 336 336 335 336 339 340 340 340 340 340 340 339 339 338 336 337 334 330 328 327 326 327 328 329 331 333 336 337 338 337 337 338 338 338 338 337 336 335 333 329 325 323 321 319 319
304 306 309 315 317 323 329 330 329 328 328 324 326 327 327 328 326 325 324 323 324 324 324 324 330 337 336 339 341 342 340 336 337 342 342 339 341 341 341 341 341 342 344 344 340 332 330 332 332 330 328 328 331 334 333 334 337 338 339 340 340 340 339 339 339 338 337 337 334 330 328 326 326 327 328 328 330 332 334 336 337 337 337 338 338 338 337 336 335 332 329 325 323 323 322 321 319
304 307 311 319 322 324 329 328 326 323 324 324 325 325 324 325 324 324 323 322 324 323 323 324 333 339 339 341 339 340 337 332 332 335 336 335 337 337 340 342 340 342 343 344 341 336 332 332 332 329 326 324 324 327 329 333 335 336 337 338 339 339 339 339 339 338 339 338 336 334 331 329 327 327 328 329 330 333 335 336 336 337 337 337 337 337 337 335 332 327 324 324 324 324 323 322 321
305 310 315 321 327 327 329 329 327 323 321 324 325 323 321 322 322 322 322 323 323 321 321 324 335 338 338 339 337 335 332 331 331 332 333 332 332 334 340 341 340 342 342 344 342 341 337 332 331 330 329 328 327 324 325 331 334 335 337 338 337 338 338 339 339 338 339 337 336 336 334 331 328 327 326 328 333 335 335 336 335 337 337 336 337 336 336 333 326 323 324 326 326 325 323 322 322
310 313 317 322 330 329 329 329 328 325 322 325 325 321 319 320 320 321 322 324 322 320 320 321 333 337 332 331 331 332 330 331 331 330 330 330 331 334 339 340 340 342 342 343 341 342 340 333 331 332 332 332 332 328 325 325 327 330 332 335 336 337 337 337 338 338 337 337 336 335 334 331 327 327 325 327 334 336 335 335 335 336 336 336 336 336 334 328 322 324 327 329 327 325 324 323 323
314 316 319 324 329 327 329 327 325 324 321 322 321 318 317 318 318 320 322 323 321 318 319 320 329 334 329 326 327 327 327 328 329 329 327 326 330 334 339 340 340 342 341 342 341 342 340 334 331 332 332 333 333 328 325 324 324 323 322 325 329 333 335 336 336 337 337 336 335 333 333 332 329 327 325 327 332 335 334 334 335 335 335 335 335 334 331 325 325 328 329 329 328 327 325 325 324
319 321 321 324 326 325 328 325 323 322 319 318 317 316 315 316 317 319 320 320 320 317 318 318 323 331 329 327 327 324 321 322 323 324 323 322 329 335 339 340 340 341 340 341 341 342 340 334 333 334 334 335 334 329 325 326 326 324 322 325 327 327 329 333 334 335 335 335 333 329 330 332 332 328 325 329 331 333 334 332 334 334 333 334 333 332 329 328 328 329 329 329 329 327 326 326 326
322 325 321 322 323 322 323 322 322 320 316 315 314 314 314 314 315 318 319 319 318 317 317 316 319 330 330 327 327 324 319 317 317 319 322 324 330 336 338 340 340 341 340 341 340 341 340 336 336 336 336 337 336 332 327 326 327 327 329 330 330 327 326 330 332 331 332 334 332 328 330 333 334 331 329 332 330 332 334 331 332 332 332 333 332 331 330 330 329 329 329 329 329 328 326 326 327
322 325 320 320 322 320 318 320 321 317 314 313 312 313 312 313 315 316 318 317 317 315 315 316 318 324 326 327 325 322 318 315 317 323 325 326 331 334 336 339 339 340 340 340 340 341 340 338 339 338 339 338 337 334 329 328 328 330 331 329 328 326 326 331 331 328 329 332 333 330 332 333 334 334 332 334 331 331 333 332 333 332 333 334 333 331 329 328 327 328 328 328 329 328 327 326 327
321 320 318 318 321 320 315 319 322 316 312 311 311 311 311 312 314 315 316 316 316 316 315 316 318 319 321 326 324 320 316 315 319 323 323 324 328 332 335 338 339 340 339 340 340 340 340 339 340 339 339 338 337 334 333 332 332 333 331 328 327 325 325 331 331 328 329 331 333 333 333 334 335 334 332 334 334 332 331 331 332 333 334 334 332 328 327 327 327 328 327 328 328 326 327 328 328
320 317 319 319 317 317 315 319 322 315 311 310 311 310 311 312 313 314 315 316 315 316 315 315 318 316 319 324 322 317 315 315 314 313 317 319 324 330 334 338 338 339 339 339 339 340 340 339 338 337 337 337 336 335 335 334 334 333 330 328 328 326 325 331 332 329 330 332 333 334 334 334 335 335 333 334 335 334 333 332 332 334 335 334 331 328 327 328 327 327 327 327 328 326 327 329 328
321 317 320 320 317 319 320 322 319 313 310 310 310 310 311 311 312 312 313 315 314 315 315 315 316 316 320 321 319 315 313 313 310 310 314 316 321 328 332 337 338 338 338 338 338 339 340 338 337 337 336 336 335 335 335 334 334 332 330 329 329 328 327 329 332 330 330 331 333 333 334 334 334 336 335 334 334 335 335 334 334 334 334 332 330 328 327 327 328 328 328 328 329 328 327 328 328
322 321 319 319 320 320 321 324 319 312 309 309 309 310 311 310 311 311 311 314 314 315 314 313 314 317 318 318 316 312 311 311 308 310 313 315 320 325 328 331 335 335 336 337 337 337 338 337 337 337 336 335 335 335 335 334 333 332 330 329 329 330 327 328 330 331 330 330 331 332 333 334 334 336 336 335 335 336 336 336 335 334 333 331 329 327 326 327 328 328 326 327 329 329 328 328 327
320 323 321 321 321 316 315 321 318 311 308 308 308 309 310 309 309 310 309 312 314 314 314 312 313 317 316 315 315 310 310 309 307 309 313 316 318 321 324 325 328 332 332 333 334 335 336 337 336 335 335 335 334 334 334 333 333 332 331 329 329 329 328 328 328 330 330 329 330 332 333 334 335 335 335 336 336 336 336 336 335 333 332 330 328 326 325 326 325 323 320 321 325 325 326 326 325
317 321 322 321 318 314 311 312 313 310 308 308 308 308 309 308 308 309 309 310 313 313 313 311 312 316 314 312 312 309 309 308 307 309 312 316 317 319 322 321 323 328 329 329 331 332 333 335 336 335 335 335 335 334 334 334 333 332 331 330 330 329 328 327 327 328 327 327 328 331 333 334 335 335 336 336 336 336 335 335 334 331 331 330 328 327 325 325 323 321 318 318 321 321 323 324 324
316 319 320 317 313 311 309 308 309 309 308 307 307 307 308 307 307 308 308 309 312 312 312 311 310 311 310 309 309 307 308 307 306 308 311 315 315 318 320 319 321 324 325 326 328 329 330 332 333 334 335 336 335 335 334 334 333 332 331 330 330 330 329 327 327 326 324 325 326 329 333 335 335 335 336 336 335 335 334 334 332 329 330 329 327 327 326 325 324 322 320 319 320 320 321 323 324
315 317 315 311 309 308 307 306 306 307 307 307 307 306 307 306 306 307 307 309 311 310 309 309 309 309 308 307 307 307 306 306 305 307 308 309 310 311 313 314 315 318 319 321 323 325 328 330 330 332 334 335 335 335 334 333 333 332 331 330 330 330 330 327 327 326 324 324 325 329 333 335 335 335 335 335 336 335 334 334 331 328 330 329 327 328 327 326 325 324 323 321 322 321 320 322 325
314 313 310 309 308 307 306 306 305 306 306 307 306 306 307 306 306 306 307 309 309 308 307 307 308 308 307 306 306 306 305 305 304 304 304 305 306 306 307 307 309 311 312 314 317 320 325 327 328 330 332 334 334 334 334 334 333 332 331 331 330 329 330 328 325 325 325 323 325 330 334 334 335 335 335 335 335 334 333 333 333 331 331 330 328 328 327 327 326 325 325 324 324 323 323 325 326
311 310 309 308 307 306 306 306 306 305 306 307 306 306 306 305 305 306 306 307 307 307 306 306 306 306 307 306 305 305 303 303 303 302 302 303 304 304 304 304 305 306 308 310 312 314 318 323 327 329 330 332 334 334 334 334 332 331 331 332 331 329 329 328 325 326 326 324 327 332 334 334 335 335 335 335 334 335 333 333 334 332 332 331 329 328 328 327 327 327 327 325 325 326 325 326 326
309 309 308 307 306 306 305 306 306 306 306 306 306 306 306 306 305 305 305 306 306 306 305 305 306 306 306 305 305 304 303 301 301 301 302 302 302 303 303 302 303 304 305 306 308 310 313 318 323 326 329 331 333 334 333 334 332 331 333 333 332 332 330 328 329 330 329 327 328 334 334 334 334 334 335 334 334 334 333 333 333 331 331 331 329 328 328 328 329 328 328 326 326 327 326 326 326
307 307 307 306 306 306 305 305 306 306 306 306 306 306 306 306 305 304 305 306 306 305 305 305 305 305 305 305 304 303 302 301 300 300 300 301 301 301 301 301 301 302 304 305 306 308 310 314 319 324 328 329 332 333 333 333 332 331 333 333 333 333 331 330 333 333 331 329 330 333 334 334 334 334 335 334 334 334 333 333 332 331 331 330 329 329 330 331 330 329 328 326 326 327 326 326 325
306 306 306 306 306 306 306 305 305 306 306 306 306 305 305 306 305 304 304 305 305 304 304 304 305 305 305 305 304 303 302 300 299 299 299 299 300 300 300 300 300 300 302 303 304 306 309 312 315 320 325 328 330 332 333 333 332 331 331 332 332 333 332 331 333 334 332 332 331 332 333 334 333 333 334 334 334 334 333 333 333 332 332 331 330 330 331 331 329 329 328 326 325 325 325 325 325
306 305 305 306 305 306 305 305 306 305 305 306 306 306 305 305 305 304 304 304 304 304 304 304 305 305 305 304 303 302 301 300 298 298 298 298 298 299 299 298 298 299 300 301 302 304 307 310 312 316 321 325 328 329 332 333 332 332 331 331 332 332 332 332 333 334 334 333 333 333 333 333 333 333 333 334 334 334 333 332 332 332 332 332 331 330 330 329 328 328 327 326 325 324 323 323 323
306 305 305 306 305 305 305 305 306 305 305 305 306 306 305 305 305 305 304 304 303 304 304 304 305 305 305 303 302 301 300 299 298 297 297 297 297 297 297 297 297 298 299 300 300 302 305 308 311 313 316 321 324 326 328 330 331 332 331 331 331 332 332 332 333 334 334 334 333 333 333 333 334 333 333 333 334 333 333 332 331 331 331 332 331 331 329 328 328 327 326 325 325 324 323 323 322
306 305 305 305 305 305 305 305 305 306 305 304 305 306 306 305 305 305 304 304 303 304 304 305 305 305 304 303 302 300 299 298 297 297 296 296 296 296 296 296 296 296 297 299 299 300 303 306 308 310 312 315 319 321 321 324 328 332 332 331 331 331 332 332 332 333 333 333 333 333 332 332 333 333 332 332 332 332 332 332 332 331 331 331 330 329 329 329 327 325 325 325 325 324 324 323 322
305 305 305 305 305 305 305 305 305 306 306 305 306 305 306 305 305 305 304 304 304 303 304 305 305 305 304 304 302 300 298 297 296 295 295 295 296 295 295 295 296 296 296 298 298 300 303 304 306 308 309 312 316 317 317 320 326 330 332 331 331 331 331 332 331 332 332 332 332 332 332 331 331 331 331 331 331 331 331 330 331 331 331 330 329 328 329 329 327 325 325 324 324 324 323 323 323
305 305 305 304 305 305 305 305 305 306 305 306 306 305 306 306 306 305 303 303 304 303 304 304 305 305 304 303 302 299 297 296 295 294 294 294 295 295 295 294 295 295 295 296 297 298 301 303 306 307 308 310 314 315 315 319 324 328 330 331 331 330 331 331 331 331 331 331 331 331 331 331 330 329 329 330 330 330 330 329 330 330 330 330 329 329 329 329 327 326 326 325 324 324 323 323 323
305 305 305 305 305 305 305 305 305 306 305 305 305 305 307 307 306 304 303 303 303 303 304 304 304 304 303 301 300 299 297 295 294 294 293 293 294 295 295 294 294 295 295 295 296 297 299 302 306 307 307 308 311 312 313 316 319 321 324 328 329 330 330 330 330 330 330 330 330 330 329 329 328 328 328 328 329 329 329 329 329 330 330 330 330 329 329 328 327 326 326 325 324 324 324 324 324
305 305 306 306 306 306 306 305 305 306 305 305 305 305 307 307 305 303 303 303 303 303 304 304 303 302 301 300 299 298 296 295 294 293 292 292 293 294 294 294 294 295 295 295 296 297 298 300 304 306 306 306 307 309 312 315 315 315 316 319 321 324 326 328 328 328 329 329 329 329 327 327 326 326 326 326 327 328 328 329 329 330 330 330 329 329 329 328 328 327 326 325 325 325 325 325 325
305 306 306 306 308 308 307 305 306 305 305 305 305 307 307 306 304 303 303 303 303 303 304 303 302 301 300 299 298 297 295 294 293 292 292 292 292 293 293 294 293 294 295 295 296 297 297 299 302 304 305 305 305 307 310 313 315 314 313 314 316 317 319 323 325 325 326 327 327 325 322 323 325 325 325 326 326 327 328 329 329 329 329 329 328 328 328 328 327 327 326 325 325 325 325 325 325
307 308 307 307 309 309 307 306 306 305 305 306 305 307 308 305 305 304 303 303 303 303 303 303 301 300 299 298 297 296 295 294 293 292 292 291 292 293 293 293 293 294 295 295 296 297 297 298 300 302 304 304 304 305 308 310 312 313 314 315 317 316 314 317 320 321 324 324 323 320 319 321 323 323 324 325 326 327 327 327 327 327 327 328 328 327 328 327 327 327 326 325 325 325 325 325 325
308 310 310 309 309 308 307 306 306 305 305 306 306 307 307 306 305 305 304 303 303 303 303 303 301 300 299 298 296 295 295 294 293 292 292 292 292 292 293 293 293 294 294 296 296 296 297 298 299 301 302 303 303 303 305 308 309 311 312 312 314 315 313 314 317 317 319 320 320 320 320 321 322 322 322 324 325 325 326 326 326 326 326 326 326 327 327 327 327 326 326 325 325 324 324 324 324
308 309 310 309 308 308 308 306 306 306 305 305 306 306 306 306 306 305 304 303 303 303 302 302 301 299 298 297 296 295 294 293 293 292 292 292 292 292 293 293 293 294 294 295 297 296 296 298 299 300 301 302 302 301 302 304 305 307 308 307 309 310 310 311 313 315 316 317 317 318 318 318 319 320 321 322 323 323 324 324 324 324 325 325 324 325 325 325 326 325 325 325 324 324 323 323 323
309 309 309 308 308 308 308 307 306 306 305 305 306 307 306 306 306 305 304 303 303 303 302 301 300 299 298 297 296 294 294 293 293 292 292 292 292 292 293 293 293 294 294 294 296 296 296 297 298 299 299 300 300 300 300 301 302 305 305 304 303 305 307 308 309 311 312 313 314 314 314 315 315 316 317 318 319 319 320 321 322 322 322 322 322 322 322 323 324 324 323 323 323 323 322 322 321
310 309 310 310 309 309 308 308 307 305 305 305 306 307 306 306 306 305 305 303 303 302 302 302 299 299 298 297 296 294 293 293 293 292 292 292 292 292 293 293 293 294 294 294 295 296 296 296 297 299 299 299 299 299 299 300 302 305 306 305 302 300 301 303 305 307 307 309 310 310 312 313 313 313 314 315 315 316 317 317 318 318 318 319 319 319 319 320 321 322 321 320 319 316 315 316 317
308 308 310 310 310 309 307 306 306 305 305 306 306 306 306 305 305 305 305 304 303 303 302 302 300 300 300 297 296 295 294 294 293 292 292 292 292 292 292 292 292 293 294 294 294 295 295 296 296 297 297 298 299 299 298 298 300 301 302 302 300 296 296 297 299 300 302 304 305 307 309 310 311 311 311 312 313 313 313 313 314 314 314 315 315 315 315 315 316 316 316 315 314 312 312 312 313
307 308 309 310 310 310 307 305 306 305 305 306 306 306 306 306 306 305 305 304 304 303 303 302 300 301 301 298 295 295 296 295 293 292 292 292 291 291 292 292 292 292 293 294 294 294 294 295 295 296 296 296 297 297 297 296 296 297 296 296 295 294 295 295 295 296 297 298 300 303 305 305 306 307 308 309 309 310 309 310 310 311 311 311 311 310 310 310 311 310 310 310 310 310 309 309 312
305 307 308 308 308 307 306 306 307 305 306 306 306 306 307 306 306 306 305 304 304 303 302 301 299 299 299 297 295 294 295 294 293 292 292 292 292 291 291 291 291 291 292 293 293 294 294 294 295 295 295 296 296 296 296 295 294 294 294 294 293 292 293 293 293 293 293 295 297 299 300 301 302 303 304 305 306 306 305 305 306 306 307 307 306 306 306 307 307 307 306 305 303 303 302 303 308
306 308 308 306 306 306 306 306 306 305 306 306 306 307 307 306 306 306 304 304 304 303 301 300 299 299 297 296 295 294 294 294 293 293 292 292 292 291 291 291 291 291 291 292 293 293 293 294 294 294 295 295 295 295 295 295 294 293 293 292 292 291 291 291 292 292 293 294 295 296 297 298 299 300 300 301 302 301 300 300 300 300 302 303 303 303 303 302 302 302 302 300 299 298 297 297 301
308 309 307 305 305 306 306 306 305 305 306 306 307 306 305 305 306 306 305 305 305 303 301 299 299 299 296 295 295 294 294 294 293 293 292 292 292 291 291 290 290 291 291 292 292 292 293 293 294 294 294 294 295 295 295 295 294 293 292 291 291 291 291 291 291 292 292 293 293 293 294 294 295 296 296 297 297 296 296 296 295 295 296 297 298 298 297 297 297 297 297 297 297 296 294 294 295
309 309 306 304 304 305 306 306 306 306 306 306 305 306 307 307 307 306 305 305 305 303 300 298 298 298 296 297 298 295 294 294 294 293 292 292 292 291 291 290 290 290 290 291 292 292 292 292 293 293 293 294 294 295 294 294 294 293 292 292 292 291 291 290 290 290 290 291 291 291 291 291 292 292 292 293 293 293 293 293 293 293 292 292 293 293 293 293 293 293 293 294 294 294 294 293 293
308 307 304 304 305 306 306 307 307 309 309 306 305 308 310 309 308 307 306 306 305 303 300 299 299 298 296 297 298 297 295 294 294 293 292 291 292 291 291 290 290 290 290 290 291 291 291 291 292 293 293 293 294 294 294 293 293 293 292 292 291 291 290 290 290 289 289 289 289 289 289 290 290 290 290 290 291 291 291 291 291 291 291 290 291 290 291 291 291 291 292 292 292 292 292 292 292
308 307 305 305 306 306 306 307 307 309 311 307 305 307 307 307 308 307 306 306 306 303 302 300 300 300 297 297 297 296 295 294 294 293 292 292 292 291 291 290 289 290 289 289 290 290 290 290 291 292 292 292 293 294 294 293 293 292 291 291 290 290 290 290 289 289 289 289 288 288 288 288 289 289 289 289 289 289 289 289 289 289 289 289 289 289 289 290 289 290 290 290 291 291 291 292 292
306 307 305 305 304 305 306 306 306 308 309 308 305 304 305 307 308 307 305 305 305 305 305 303 302 301 299 298 296 295 295 294 293 293 292 292 291 291 290 290 289 289 289 289 289 289 289 289 290 291 291 292 292 293 293 293 293 292 291 291 290 290 290 290 289 289 289 289 288 288 288 288 288 288 288 288 288 288 288 289 288 288 288 288 288 288 288 288 288 289 288 288 289 290 290 290 290
303 305 303 302 302 304 305 306 307 308 309 310 306 303 306 309 309 306 304 305 306 306 306 306 304 302 301 299 297 295 295 294 293 293 292 292 291 291 290 291 290 289 289 289 290 290 289 289 289 289 290 290 291 292 292 293 293 292 292 291 291 290 290 290 289 289 289 288 288 288 288 288 288 287 287 287 287 288 288 288 288 287 287 287 287 287 287 288 288 288 288 287 288 288 288 289 289
302 302 301 302 303 305 305 305 307 307 309 311 307 303 304 308 309 307 306 306 306 306 307 306 306 304 302 301 298 296 295 295 293 292 292 292 291 291 291 291 290 290 289 289 289 290 289 289 288 289 289 289 290 291 291 292 292 292 292 292 291 290 290 290 289 289 288 288 288 288 287 287 287 287 287 287 287 287 287 287 287 287 287 287 287 287 287 287 287 287 287 287 287 287 287 287 287
301 302 303 305 305 305 305 306 305 307 311 310 305 302 302 306 310 308 307 307 304 305 306 305 306 305 303 302 299 296 295 296 294 293 292 292 291 291 291 291 291 290 290 289 289 289 289 289 288 288 289 289 289 290 290 291 291 291 291 291 291 291 290 290 289 289 289 288 288 288 287 287 287 287 287 287 286 286 286 286 287 287 286 286 286 286 286 286 287 287 287 286 286 286 286 287 286
301 302 305 307 309 308 308 307 305 308 313 309 304 301 301 304 308 305 304 305 303 304 305 305 306 305 304 302 299 297 296 296 296 294 293 293 292 292 292 292 291 291 291 290 289 289 289 289 288 288 288 288 289 289 289 290 290 290 290 291 291 290 290 290 289 289 289 289 288 287 287 286 286 286 286 286 286 286 286 286 286 286 286 286 286 286 286 286 286 286 286 286 286 286 286 286 286
302 304 305 308 310 310 310 310 309 310 312 307 302 301 302 304 305 303 302 303 303 304 304 304 305 304 304 302 300 299 298 297 297 296 294 294 293 293 292 292 292 292 291 290 289 289 289 289 289 288 288 288 288 288 288 289 289 290 290 290 290 290 290 290 289 289 289 288 288 287 287 286 286 286 286 286 285 285 286 286 286 286 286 286 286 286 286 286 285 285 286 286 286 286 285 285 286
302 304 305 308 309 309 310 311 310 311 310 306 302 302 305 306 304 302 302 303 303 302 302 303 304 304 304 303 301 301 299 298 298 297 295 294 294 294 293 292 292 292 291 290 289 289 289 289 289 288 288 287 287 288 288 288 288 289 289 289 290 290 290 290 289 289 289 288 288 287 286 286 285 285 285 285 285 285 285 285 285 285 285 286 286 286 286 286 286 285 285 285 285 286 285 285 285
302 302 303 306 306 306 309 311 310 311 308 305 303 303 307 308 305 303 302 303 303 302 302 303 303 303 303 303 302 301 300 299 300 298 296 295 295 294 294 293 293 292 292 291 290 289 289 289 289 289 288 287 287 287 287 287 287 288 288 289 289 289 289 289 289 289 289 288 288 287 286 285 285 285 285 285 285 285 285 285 285 285 285 286 286 286 286 286 286 285 285 285 285 285 285 285 285
303 301 302 305 303 302 306 309 307 306 305 304 305 306 307 306 304 302 302 302 302 302 301 301 301 301 302 302 301 301 301 300 301 300 297 295 295 295 294 293 293 293 292 291 291 289 289 289 289 288 288 287 287 287 287 287 287 287 287 288 288 288 288 288 288 288 288 288 288 287 286 285 285 285 285 285 285 285 285 285 285 286 285 286 286 286 286 286 286 286 285 285 285 285 285 285 285
304 303 304 303 301 300 304 307 304 303 306 307 306 308 308 306 303 301 301 301 302 302 301 299 300 300 301 302 302 302 302 302 302 301 297 296 296 295 295 294 293 293 292 292 291 290 289 289 288 288 287 287 287 287 287 287 286 286 286 287 287 287 288 287 287 287 287 287 287 286 286 285 285 285 285 285 285 285 285 285 286 286 286 286 286 285 286 285 285 285 285 285 285 285 285 285 285
303 304 302 300 301 301 301 305 306 306 308 309 307 307 308 308 306 303 301 301 301 303 302 300 300 301 301 302 303 302 302 303 302 300 297 297 297 296 295 295 294 293 293 292 292 291 290 290 289 288 288 287 287 287 287 286 286 286 286 286 286 286 286 286 286 286 287 287 287 287 287 285 285 285 285 285 286 285 286 286 286 286 286 286 286 286 286 286 285 285 285 285 285 285 285 285 285
301 302 299 301 305 305 304 306 308 308 308 308 307 307 306 307 305 303 302 301 301 302 302 302 302 302 302 303 304 303 303 303 302 301 298 297 297 297 296 295 295 294 293 293 292 292 291 290 289 289 289 288 288 288 287 287 287 286 286 285 285 286 286 286 285 286 286 286 287 287 287 285 285 286 286 286 286 286 286 286 286 286 286 286 286 286 286 286 286 285 285 285 285 285 285 285 285
299 300 300 300 303 305 305 305 305 306 308 308 308 306 306 306 303 301 301 301 301 302 303 303 302 302 303 303 304 304 304 304 304 303 300 297 298 297 296 296 295 294 294 293 293 292 292 291 290 289 289 289 289 289 288 288 288 287 286 286 285 285 285 285 285 285 285 286 286 286 285 285 285 286 285 285 286 286 286 286 286 286 286 286 286 286 286 286 286 286 285 285 285 285 285 285 285
300 302 301 301 302 304 304 303 302 303 305 306 306 306 306 305 302 299 299 300 302 303 303 303 303 302 302 303 304 304 304 304 304 304 301 299 299 298 297 297 296 295 295 294 293 292 292 291 291 290 290 289 289 289 289 289 288 288 288 287 286 286 285 285 285 285 285 286 285 285 285 285 285 285 285 284 285 285 285 286 286 286 286 286 286 286 286 286 286 286 286 285 285 285 285 285 285
300 302 302 301 302 303 304 305 303 300 301 303 303 304 305 302 300 298 298 299 300 301 303 303 302 301 301 302 303 302 303 303 303 302 300 299 300 299 298 298 297 296 295 294 294 293 292 292 291 291 290 290 290 289 289 289 289 288 288 288 288 287 286 286 285 285 285 285 285 285 284 285 285 285 284 284 284 284 285 285 285 286 286 286 286 286 286 286 286 286 286 286 286 285 285 285 285
Wind_Speed
7 6 5 5 8 11 8 4 2 1 2 3 3 2 2 5 9 9 11 11 6 7 7 6 5 6 5 9 14 14 14 11 8 4 3 4 6 12 9 7 11 4 13 13 13 14 14 12 13 11 10 9 8 8 6 6 7 7 7 8 9 9 9 10 12 12 11 10 10 10 11 10 9 9 8 8 7 7 7 7 7 7 8 7 8 10 10 12 12 11 11 10 10 10 11 12 12
6 5 3 4 8 6 2 2 2 2 3 3 2 5 4 7 10 10 10 9 6 6 7 7 5 8 4 12 12 13 13 12 11 6 5 11 8 14 13 7 13 1 12 12 13 15 14 12 13 12 11 10 8 8 7 6 7 7 7 9 9 9 10 11 11 11 10 9 9 9 10 9 9 8 8 8 7 7 7 7 6 6 7 7 9 10 10 11 11 10 9 9 9 9 10 11 11
5 4 3 6 6 4 2 2 2 3 3 1 4 7 8 9 9 9 8 7 6 7 7 7 7 9 7 10 11 10 9 10 14 7 5 17 11 16 17 11 13 1 11 12 14 14 14 13 13 12 12 10 9 7 7 7 6 7 6 7 8 10 11 10 9 9 9 8 8 6 7 7 8 8 7 7 7 7 7 6 6 6 6 8 9 10 10 10 9 9 8 8 8 8 9 10 10
4 3 4 7 3 4 2 1 2 3 3 1 4 6 9 8 9 8 7 7 6 7 8 8 6 7 11 12 8 8 7 7 14 11 4 13 15 19 18 12 11 2 10 12 15 14 13 14 14 13 12 11 9 7 8 8 7 7 7 6 6 8 8 8 7 8 8 8 7 5 4 4 6 6 6 7 7 7 6 6 6 6 6 7 9 9 10 9 8 8 7 7 7 7 8 9 8
5 4 4 6 2 1 1 1 3 1 2 3 3 5 9 8 9 8 6 7 7 9 9 8 4 7 11 9 5 4 7 5 11 16 10 15 21 21 16 12 8 3 8 8 14 15 13 15 14 13 13 11 10 8 8 7 7 8 8 7 6 6 5 5 6 6 7 6 6 5 4 3 3 4 6 7 8 7 6 7 6 6 6 6 8 9 9 8 7 7 6 6 6 7 7 7 7
8 5 4 5 1 1 1 2 2 2 5 5 4 5 8 9 9 9 6 6 8 10 10 9 5 9 8 7 9 7 8 7 7 14 15 20 25 21 14 10 5 4 6 6 12 15 13 15 15 13 12 10 10 9 9 7 6 6 6 7 6 5 4 4 4 5 5 5 4 4 4 3 3 4 5 7 8 8 6 7 6 6 7 7 7 7 7 8 7 6 5 5 5 6 7 6 5
7 4 3 3 1 0 1 3 1 4 6 8 7 7 9 9 8 8 7 7 8 10 10 10 6 7 6 5 9 12 16 15 8 11 19 24 25 18 11 8 4 3 6 7 12 13 13 16 15 14 12 11 11 10 10 9 7 6 5 4 3 4 4 4 4 3 3 3 2 3 5 4 4 3 5 6 7 8 7 6 6 6 6 7 7 7 8 8 7 5 5 4 4 5 5 5 5
5 2 1 1 2 1 2 2 4 5 6 9 8 9 10 10 9 7 8 8 8 9 11 12 11 3 6 7 6 10 20 24 16 16 26 28 24 17 11 10 5 2 5 7 11 13 15 18 16 14 12 11 12 11 10 9 8 7 5 3 2 3 5 6 5 4 3 3 2 4 5 5 4 4 5 6 6 8 8 6 6 7 7 7 7 8 8 7 6 5 4 3 3 4 5 5 4
5 2 2 1 2 2 2 2 6 6 8 10 9 11 11 11 9 9 9 9 9 9 13 15 11 5 6 11 8 8 17 31 27 21 30 31 25 20 15 11 6 1 4 7 9 12 16 17 15 13 11 10 12 13 12 10 9 7 5 4 4 4 7 8 6 5 5 4 4 5 6 5 5 5 5 6 6 8 8 8 8 8 9 9 9 8 8 7 6 4 3 2 3 3 4 3 3
3 2 1 1 2 3 3 2 6 7 9 10 11 13 11 11 10 11 11 11 11 10 14 15 9 10 7 8 7 8 15 34 37 29 34 33 28 25 17 10 7 3 4 6 7 12 16 15 12 11 9 10 12 14 12 11 9 6 5 4 5 4 7 9 7 7 6 5 5 6 7 6 6 6 6 6 6 8 9 9 10 10 11 10 9 9 7 6 5 4 2 2 2 3 3 3 3
1 1 1 1 2 3 2 4 6 7 9 9 11 13 10 11 10 12 12 11 12 10 14 14 9 12 10 6 5 9 23 39 39 33 36 34 29 27 18 9 5 3 3 4 6 10 13 12 10 9 9 9 12 13 11 11 8 5 4 5 6 6 6 9 8 8 7 6 6 6 6 6 6 6 7 7 7 7 9 10 10 11 12 11 10 8 7 5 4 3 3 2 3 4 4 3 3
1 1 1 1 2 1 3 6 7 8 10 11 11 11 8 11 11 12 13 12 12 11 14 13 8 11 9 5 3 14 32 40 35 33 35 32 29 26 20 10 5 5 3 2 1 5 9 9 7 7 8 9 11 12 11 10 8 6 4 4 5 5 6 9 10 8 7 6 5 5 4 5 6 6 8 8 8 8 9 10 10 12 12 11 10 8 6 6 4 4 3 3 3 4 4 3 4
2 2 0 1 2 5 6 5 6 8 9 10 9 10 8 10 12 12 12 11 12 12 13 13 11 8 7 4 4 15 26 34 35 35 34 29 25 24 21 16 10 9 4 1 4 2 6 7 7 6 7 8 9 10 10 9 8 6 4 4 5 5 5 8 11 9 8 7 5 4 4 5 5 6 8 9 9 8 9 10 10 13 13 11 10 8 7 6 5 4 3 2 1 2 3 3 4
3 3 1 1 5 6 7 3 4 7 7 8 8 10 8 9 11 10 10 11 13 10 10 15 13 7 7 7 6 10 19 31 35 34 34 26 22 21 20 21 18 16 11 10 9 4 3 5 7 6 5 5 6 7 7 7 7 6 5 4 5 6 5 6 10 11 9 7 6 4 3 5 4 5 6 8 10 9 10 12 13 14 13 11 9 8 6 5 4 3 2 3 2 0 1 3 4
3 2 2 2 5 6 6 6 6 6 6 8 9 11 8 10 11 9 10 10 9 9 9 17 15 5 7 9 6 10 19 29 32 33 33 26 23 20 19 22 21 19 16 16 14 9 5 3 6 5 4 3 4 5 6 7 7 6 6 6 6 7 7 6 8 11 10 8 7 4 3 5 5 5 5 7 10 10 12 12 13 14 12 9 8 7 5 4 3 3 3 3 2 1 1 2 3
2 1 2 4 6 6 6 8 8 5 6 8 9 11 10 11 11 8 9 8 4 10 10 13 14 8 7 8 9 14 20 25 28 32 33 30 27 23 23 25 24 21 19 19 17 13 11 6 2 4 6 5 5 4 5 6 7 8 7 7 7 7 7 7 7 10 11 8 7 4 3 5 4 4 5 6 9 9 11 11 12 14 11 9 8 6 4 4 3 3 4 5 4 3 2 2 2
2 3 5 6 6 6 6 8 7 5 6 8 9 10 10 10 10 9 11 6 6 11 11 10 11 11 9 9 13 17 19 23 28 33 34 33 30 28 29 29 27 25 23 21 20 17 12 8 5 2 4 6 6 6 6 6 7 9 9 8 8 8 8 8 6 7 9 8 7 4 3 5 3 3 4 5 7 7 9 11 13 14 11 10 7 5 4 3 3 3 5 6 6 4 2 2 3
4 4 6 6 5 6 6 7 6 5 6 8 8 9 9 9 10 9 11 7 10 10 11 11 10 11 12 13 17 19 21 24 27 29 30 28 27 26 27 28 27 27 28 26 24 20 14 11 9 5 1 4 5 6 6 6 5 8 8 8 8 9 10 8 6 6 7 9 7 3 3 5 4 3 4 5 6 6 9 12 14 13 11 9 6 4 3 2 3 3 5 7 6 5 4 4 4
6 5 6 6 5 6 6 7 6 6 7 8 8 8 8 8 8 7 9 8 11 11 10 11 11 11 13 15 19 20 21 23 24 25 24 24 24 23 24 25 25 26 29 28 27 24 20 16 10 6 4 1 4 5 5 6 5 5 7 8 7 7 9 8 6 6 7 8 5 3 5 6 4 4 5 6 7 7 11 13 14 12 9 8 6 4 3 2 3 3 6 7 6 5 5 4 4
7 5 7 5 6 7 7 7 7 6 6 7 8 7 6 7 6 6 8 8 10 10 9 10 11 12 12 14 17 19 19 21 23 23 21 21 22 21 22 25 25 25 25 25 27 25 23 19 13 8 6 3 3 5 5 7 6 5 8 9 7 6 7 7 8 7 7 7 5 4 6 5 4 4 4 6 8 9 12 13 13 11 9 8 7 6 5 4 2 2 5 6 4 3 4 3 3
5 5 7 5 6 6 6 8 7 6 6 7 6 6 6 5 5 6 8 6 7 7 7 9 10 10 10 11 14 17 17 19 21 21 21 19 20 21 21 22 23 25 23 23 28 27 25 22 17 11 6 5 2 5 6 7 6 8 9 8 8 7 7 8 9 8 8 7 6 5 6 5 4 5 5 5 8 10 11 12 12 11 9 9 8 8 7 4 1 2 3 5 4 3 3 1 2
5 8 8 6 5 5 5 6 6 6 5 6 6 6 6 4 5 6 7 5 4 5 6 7 7 8 8 9 12 14 15 17 18 20 20 18 19 21 22 24 24 26 26 24 28 29 25 23 20 14 9 7 4 5 7 6 5 8 10 8 9 9 8 8 9 8 8 7 6 7 6 5 4 4 6 6 8 9 9 11 12 11 9 10 11 9 6 2 3 3 2 2 2 2 3 3 4
6 7 7 7 6 5 5 4 4 5 5 6 5 4 5 5 4 5 6 5 4 5 6 6 7 8 8 9 10 11 12 14 16 17 18 18 18 20 23 25 25 26 27 26 27 28 27 23 20 17 12 8 7 6 8 8 6 7 9 9 9 10 9 9 9 8 7 7 5 7 6 4 3 2 3 4 6 7 8 11 12 11 10 11 11 8 3 2 4 3 1 1 2 3 3 4 4
8 8 6 7 6 5 4 3 3 4 5 6 5 2 4 6 4 4 5 4 5 6 7 7 8 9 8 9 8 9 10 12 14 14 15 16 16 18 21 24 25 23 24 28 29 28 28 25 21 20 16 12 10 9 8 8 7 8 7 10 10 9 10 10 9 8 7 7 6 7 6 5 4 3 2 1 2 4 5 9 11 11 11 11 9 6 2 3 4 3 2 1 2 2 3 3 3
8 8 6 6 5 5 3 4 3 2 3 5 6 3 4 4 4 3 5 5 5 7 9 7 7 8 7 7 7 8 10 12 14 14 15 16 15 17 20 23 26 24 23 27 30 29 27 26 23 23 22 17 13 11 11 10 6 8 6 7 9 9 10 9 8 7 6 6 5 5 4 3 3 2 1 0 0 2 4 7 7 9 11 10 7 3 2 2 2 3 2 1 2 3 3 4 3
6 8 7 6 5 5 3 3 3 1 2 4 6 4 3 4 3 1 6 6 6 7 8 5 5 6 6 6 7 8 9 11 14 14 15 16 15 17 19 23 26 26 24 24 28 29 27 26 25 25 24 21 15 12 12 12 4 6 6 6 8 9 11 9 8 8 7 8 7 6 6 5 4 3 2 2 2 1 3 4 5 7 10 9 4 1 2 3 2 2 1 1 1 2 3 4 4
6 8 7 7 6 5 4 5 4 1 2 5 5 5 2 3 2 0 6 7 6 8 7 5 5 5 6 6 7 9 10 12 14 14 16 17 17 17 18 21 25 26 23 22 25 28 27 25 24 25 25 20 15 13 12 12 6 5 6 6 8 9 11 10 10 10 9 11 10 9 9 8 6 4 3 1 1 1 3 4 4 4 5 4 3 3 5 4 3 2 2 2 3 4 4 4 4
6 6 7 8 7 5 5 6 6 2 3 6 6 5 2 2 1 2 5 6 6 8 7 6 6 5 6 6 7 9 10 12 14 14 16 17 16 17 18 19 23 25 22 21 24 24 26 25 23 24 24 21 16 15 15 13 10 8 7 7 9 10 11 11 12 11 10 11 10 9 8 7 6 5 5 3 3 2 1 3 4 2 2 4 6 8 8 6 3 2 3 4 5 5 4 4 5
4 4 3 6 6 6 6 7 7 3 3 7 8 4 2 2 2 3 4 5 6 8 7 6 6 5 5 5 5 7 11 13 14 14 15 16 15 15 16 17 20 24 22 20 23 23 23 26 24 22 22 22 19 17 16 14 13 13 13 12 12 12 11 12 12 11 11 10 8 6 3 3 4 4 4 3 3 3 3 3 3 3 4 6 7 8 8 6 3 1 3 3 3 3 3 4 5
4 4 1 2 3 3 5 6 7 5 3 7 7 2 1 4 3 3 3 4 6 7 7 5 5 5 5 5 5 5 10 12 13 14 15 16 15 14 15 16 17 22 23 21 22 22 21 24 24 21 21 22 22 19 16 15 14 14 15 15 14 15 14 13 12 11 11 9 7 4 3 5 4 3 3 3 2 3 4 4 5 4 4 5 4 5 5 5 4 3 3 2 2 2 2 3 5
2 1 1 2 1 2 3 5 6 5 4 7 6 2 0 3 4 4 3 2 4 6 7 5 5 5 5 4 5 5 7 11 12 14 16 16 14 14 15 15 16 19 23 21 19 20 20 20 22 22 20 21 22 21 19 17 16 16 16 15 12 12 15 15 13 11 9 8 7 5 5 5 5 3 2 3 3 3 3 4 4 3 4 4 5 5 5 6 6 5 5 5 4 4 4 3 4
1 2 2 4 3 1 2 3 6 6 5 7 5 2 3 1 2 4 5 3 3 4 6 5 5 6 6 4 5 5 6 10 13 14 16 16 14 15 15 15 16 17 19 21 19 18 20 20 20 22 21 19 20 21 22 21 20 20 19 18 15 12 14 17 15 12 10 8 7 6 3 1 1 1 1 3 3 3 3 3 4 4 5 6 6 6 6 6 6 6 6 7 6 5 6 7 8
4 4 2 3 4 2 1 2 5 7 6 6 4 2 4 3 4 3 2 4 3 3 5 5 6 6 6 5 4 4 6 8 12 15 17 16 15 16 15 15 16 15 16 19 20 19 19 20 20 21 21 19 18 20 21 22 22 23 24 24 21 18 18 19 17 13 12 11 10 8 6 6 5 4 3 3 4 4 4 4 4 4 5 6 6 6 6 6 6 5 4 5 6 6 8 10 12
4 5 3 3 5 4 2 1 3 8 7 7 6 4 5 5 4 4 2 4 3 3 4 4 5 4 5 5 4 5 6 6 9 14 17 16 16 17 15 14 15 15 16 18 20 20 19 19 20 20 20 18 19 19 20 22 22 23 25 26 26 25 24 23 20 18 17 16 14 12 10 10 10 8 7 6 5 5 4 4 3 3 4 5 5 5 5 5 6 6 4 3 4 5 8 10 12
4 5 4 4 5 5 4 2 3 8 7 7 7 5 6 7 6 4 2 4 2 2 2 4 4 3 4 4 3 5 6 6 8 11 14 16 18 18 15 15 15 15 16 17 19 21 21 19 19 21 21 20 20 21 21 22 23 25 25 25 26 26 26 25 24 23 22 20 19 17 14 12 12 11 11 10 9 8 7 6 5 4 3 2 3 3 3 4 4 5 5 3 2 2 2 4 8
6 5 4 5 6 4 5 5 4 7 7 6 6 6 8 9 9 5 3 4 2 3 1 3 3 1 2 3 2 2 4 5 11 11 12 15 18 18 16 16 16 15 16 17 18 21 21 20 21 22 21 21 21 22 23 24 25 25 25 25 25 25 26 26 26 26 25 24 22 20 18 16 14 14 14 13 12 12 11 11 9 9 8 7 6 7 7 7 7 7 6 6 4 6 9 8 7
6 6 5 6 5 4 7 6 5 6 6 4 5 8 9 9 9 5 4 3 1 3 0 2 1 1 3 1 3 3 3 2 8 10 11 14 16 17 17 17 18 17 17 18 18 19 19 20 21 22 21 21 22 23 24 24 24 23 23 23 22 23 25 26 27 26 26 25 24 23 22 21 18 18 17 16 16 16 15 15 14 13 12 12 13 14 13 12 12 12 12 12 11 12 16 17 11
6 5 5 6 4 6 8 4 3 6 5 5 7 10 11 9 9 3 4 1 2 1 2 3 2 2 2 3 4 4 3 1 4 7 9 11 14 16 17 17 18 19 19 19 18 18 18 18 20 20 20 22 22 21 21 22 23 21 20 19 19 21 23 25 26 26 26 26 25 25 24 23 22 22 21 20 20 19 19 20 19 19 18 18 19 19 18 16 16 16 16 18 19 21 24 26 21
5 4 3 4 4 6 5 2 4 7 4 5 8 9 12 11 8 1 4 1 0 4 3 3 1 3 1 3 3 3 4 4 5 6 8 10 12 14 16 18 18 18 18 19 18 18 18 18 18 18 19 21 21 20 19 19 20 20 20 18 18 19 22 24 25 25 25 27 27 26 25 24 24 24 23 23 23 23 23 24 24 23 22 22 22 22 21 21 21 20 20 20 21 24 27 30 29
3 3 3 3 5 5 4 3 9 11 5 4 8 8 9 8 4 3 4 2 3 4 3 2 2 2 1 2 3 2 2 3 4 6 8 10 11 13 16 17 17 17 18 19 19 19 18 18 17 16 17 18 19 18 17 15 15 17 18 19 19 20 21 22 25 25 26 27 27 26 26 25 25 25 24 25 25 25 25 25 25 25 26 25 25 25 25 25 25 24 23 23 22 23 25 28 31
0 2 3 3 5 3 5 6 10 10 4 4 8 7 4 2 2 2 3 4 3 4 4 1 4 2 4 3 1 3 1 2 3 5 7 9 10 12 14 15 16 17 18 18 18 18 18 17 16 15 15 17 17 17 16 15 15 15 15 17 19 21 22 23 25 25 25 26 26 26 25 25 25 25 25 25 25 25 25 25 26 26 27 27 27 27 27 26 25 25 25 25 25 23 22 24 28
2 0 1 1 4 5 6 8 8 6 2 3 5 5 3 2 3 2 4 3 3 4 4 4 5 3 4 4 3 5 2 3 0 2 4 8 9 10 12 14 15 16 17 17 17 17 17 17 16 15 15 16 16 15 15 15 15 15 15 17 18 19 21 22 22 21 22 23 24 24 25 25 25 25 25 25 25 25 25 26 26 26 26 27 27 27 27 27 26 26 25 25 25 23 23 24 25
4 2 3 1 2 5 6 7 5 2 3 2 4 2 3 5 3 3 3 3 3 5 5 6 5 4 4 4 5 4 3 4 1 1 2 6 8 9 11 12 14 15 15 16 16 17 18 17 16 16 15 16 16 15 15 15 16 17 17 18 19 19 19 19 19 19 20 21 22 24 24 25 25 25 25 25 25 25 25 25 26 26 26 26 26 27 27 27 26 26 26 26 25 24 25 25 22
4 2 2 2 4 6 5 5 2 2 4 4 4 2 2 5 3 2 2 3 4 4 6 6 5 5 5 4 5 5 4 4 2 1 3 5 6 8 8 9 11 12 13 15 15 16 17 17 16 16 16 16 16 15 15 15 15 16 17 18 19 19 19 18 17 18 19 20 21 22 23 24 24 24 24 24 24 24 24 25 25 25 26 26 26 27 26 25 26 26 26 26 26 25 25 23 22
4 3 4 5 4 3 3 3 3 4 3 2 2 2 1 4 4 2 2 2 5 6 6 6 6 6 5 4 4 4 4 4 3 2 3 3 4 5 5 6 8 9 11 12 13 14 15 15 15 15 16 15 15 15 16 16 16 16 16 17 17 17 17 17 17 18 19 20 21 21 21 22 23 24 24 24 24 23 24 24 24 25 25 25 25 25 25 26 26 26 26 27 26 26 24 23 22
6 8 9 6 4 2 1 2 3 4 2 1 3 1 1 4 4 3 1 3 5 4 3 5 6 7 5 5 5 5 4 4 4 3 3 2 2 2 3 4 5 7 9 9 10 12 13 14 14 14 15 14 14 14 14 15 16 16 17 17 17 16 15 16 17 18 18 19 20 20 20 21 21 22 22 22 23 23 23 23 24 25 25 25 25 24 24 25 25 26 26 26 25 26 25 24 23
6 8 9 5 3 2 2 3 2 2 1 2 4 2 1 3 4 2 2 3 2 2 1 5 5 6 6 5 5 5 4 4 4 5 5 4 3 1 1 2 3 5 6 7 8 9 11 12 12 13 14 14 14 13 13 14 15 15 16 16 16 16 15 15 16 17 16 17 18 18 18 19 19 20 20 21 21 21 22 23 23 24 24 25 25 25 24 23 23 23 23 24 25 25 24 24 24
3 4 6 3 1 0 1 2 0 1 3 2 4 1 2 1 4 1 3 4 2 3 1 5 5 5 5 5 5 5 5 5 5 5 6 6 6 4 2 1 1 3 4 5 6 7 8 9 9 10 11 12 13 12 12 13 14 14 14 14 15 14 14 14 15 15 14 15 15 15 16 17 18 19 20 20 20 20 21 22 22 22 23 23 23 24 23 23 22 22 22 23 23 23 23 22 22
3 3 5 5 2 2 2 2 1 1 2 3 5 0 1 4 5 2 3 4 4 3 3 4 6 6 5 5 5 5 5 5 5 5 6 7 6 6 5 3 2 0 2 3 4 4 6 7 7 8 9 10 10 11 11 11 12 13 12 13 13 13 13 13 13 13 13 13 14 14 14 15 17 18 18 19 19 19 20 21 21 21 21 20 21 21 21 21 22 22 22 21 21 21 21 21 21
5 5 4 4 3 4 4 4 3 2 2 2 3 2 2 4 4 1 4 5 4 5 6 5 4 5 6 6 5 5 5 5 5 5 6 7 6 6 5 4 4 3 1 1 1 2 3 4 5 6 6 7 8 9 9 9 10 10 11 11 11 11 11 11 12 12 12 12 12 13 13 14 15 16 16 17 18 18 19 19 20 20 19 19 19 19 19 18 20 22 21 20 19 18 17 18 19
4 3 1 2 2 2 2 2 3 5 5 6 2 2 2 4 2 2 4 5 5 6 6 6 5 4 4 5 5 5 5 5 5 5 6 8 8 7 7 7 6 5 4 3 2 1 1 1 2 3 3 4 5 6 7 7 7 7 9 9 10 10 9 9 10 11 11 11 11 11 11 12 14 15 15 15 15 16 17 17 18 18 19 18 18 18 18 17 16 18 20 20 18 17 15 16 17
3 2 1 0 0 2 2 3 4 4 4 5 2 2 3 2 1 2 3 3 3 4 5 4 3 3 4 2 3 4 4 5 5 5 6 9 10 9 9 9 8 7 7 6 5 4 3 3 3 2 1 1 3 3 4 4 4 5 6 7 8 9 7 7 9 10 10 10 9 9 10 10 12 13 13 13 13 14 14 14 15 16 16 17 17 17 17 16 15 15 17 19 18 16 15 14 14
2 2 1 1 1 3 1 4 3 1 2 3 2 3 4 2 2 3 4 2 2 4 4 4 3 2 2 2 3 4 5 5 5 5 7 10 11 11 11 11 10 10 9 9 8 7 5 5 5 4 4 3 3 2 2 2 3 3 4 4 5 6 6 6 8 9 9 8 8 8 9 9 9 10 10 11 11 11 11 11 11 12 13 14 15 15 15 15 14 14 14 16 17 16 15 13 13
1 1 2 1 1 3 1 2 2 1 2 3 2 4 6 4 2 4 4 2 3 4 4 4 4 4 4 5 5 5 6 5 6 7 9 11 12 13 13 13 13 12 12 12 10 9 8 7 7 6 6 5 5 4 3 3 3 3 3 3 3 4 5 6 7 7 7 7 7 5 5 6 7 7 7 8 7 7 8 8 8 9 9 10 11 12 13 12 12 13 12 14 15 15 15 14 13
1 2 2 1 2 1 1 2 2 3 4 4 3 5 6 3 2 6 7 3 3 3 3 3 4 4 5 5 6 7 6 6 5 5 7 11 13 14 14 15 15 14 14 13 12 12 12 11 10 9 8 7 7 6 6 6 5 5 5 5 5 5 5 6 6 6 6 6 5 4 5 5 5 4 4 4 4 4 5 5 5 6 6 6 7 8 10 10 10 11 11 12 14 14 14 14 13
2 3 2 1 1 1 1 1 1 2 4 4 4 5 4 1 3 7 7 5 5 3 2 1 1 1 1 2 2 3 3 5 5 5 6 10 13 15 15 16 16 17 16 16 15 15 15 14 13 12 11 10 10 10 9 8 8 7 7 7 7 7 7 7 7 7 6 6 6 6 7 5 4 3 2 2 2 1 2 2 2 3 3 4 5 6 7 8 8 9 10 11 12 13 13 13 14
2 1 1 2 0 2 1 1 1 0 2 3 4 6 5 3 4 5 4 6 6 5 5 4 4 4 4 3 3 3 4 3 3 4 6 10 13 15 16 17 17 17 18 18 18 18 18 17 16 15 14 14 14 13 12 11 11 10 9 9 9 9 9 9 9 9 8 7 7 7 7 6 4 4 4 2 2 1 1 2 2 2 3 3 4 5 6 7 8 8 9 10 11 12 13 13 14
0 0 1 2 1 1 1 2 1 1 1 1 2 6 7 5 3 3 3 5 4 4 5 3 2 3 5 4 1 1 4 4 4 4 5 7 9 11 14 16 17 18 19 20 21 21 21 20 20 19 18 17 18 17 16 15 14 13 12 11 11 10 10 10 11 11 10 10 10 10 9 8 8 7 6 5 4 4 5 5 5 5 5 4 5 6 6 7 8 9 9 10 11 12 12 13 14
Wind_Direction
301 303 305 305 312 314 303 271 261 249 218 259 280 101 75 47 51 50 37 22 25 20 2 317 333 356 10 97 94 75 46 36 23 7 74 41 48 23 2 333 345 128 145 149 161 158 153 153 151 148 151 155 152 155 150 136 137 134 134 152 168 164 161 149 132 130 121 120 128 125 125 124 125 125 122 118 113 109 105 104 102 105 113 118 111 112 112 107 107 105 101 91 79 71 65 63 59
300 291 292 306 301 305 292 244 267 255 207 233 11 42 48 59 48 44 37 30 23 358 342 321 17 10 35 105 88 76 47 35 25 23 55 18 32 10 356 332 335 140 154 155 161 159 158 159 155 154 156 162 163 159 153 144 138 134 131 138 142 137 143 142 130 130 124 121 124 125 134 135 137 137 134 129 126 123 119 117 112 108 106 110 111 110 110 106 107 106 99 87 78 70 65 63 60
302 286 312 333 282 242 273 275 257 274 243 203 60 25 23 45 40 37 27 35 32 1 343 341 32 15 26 56 43 73 45 33 28 9 15 9 7 345 341 331 331 166 161 157 153 158 164 165 161 158 161 165 169 166 153 148 142 133 128 134 136 128 132 136 126 126 122 119 121 123 134 140 145 145 144 136 129 126 120 123 124 120 108 109 115 110 106 105 109 108 99 88 78 69 65 63 61
309 311 322 326 273 205 259 240 240 273 283 27 73 32 28 36 26 19 19 47 48 17 0 357 37 40 50 41 32 80 29 23 34 16 344 352 346 335 334 324 322 181 162 155 151 161 170 171 169 162 164 167 168 167 158 156 151 140 129 121 119 121 126 133 127 123 121 122 126 123 124 135 148 150 150 143 136 129 128 146 145 133 120 115 116 112 110 110 112 108 97 85 75 68 64 61 59
320 321 291 290 289 219 261 227 253 261 331 3 80 46 29 25 15 1 17 60 58 36 16 359 34 68 64 43 24 60 3 357 27 16 351 334 340 339 336 327 316 176 164 159 154 165 175 174 172 169 169 168 168 167 163 163 160 153 147 141 132 121 111 121 129 127 123 124 130 126 119 124 143 144 149 151 145 141 155 171 165 140 128 123 118 115 114 111 113 104 89 77 71 68 61 57 57
316 304 261 253 294 330 296 261 255 76 22 19 71 46 27 20 6 349 15 53 50 43 22 2 40 84 76 61 62 62 29 7 3 7 350 335 341 344 341 334 318 167 165 165 162 171 175 174 173 171 172 170 171 171 169 168 164 156 151 151 149 144 127 123 135 133 121 122 138 138 128 121 124 132 144 153 150 149 163 172 165 146 135 130 123 119 118 113 112 101 88 77 71 67 55 50 52
316 303 221 218 251 308 282 273 329 75 44 42 57 39 23 15 358 348 12 26 33 33 20 1 9 94 104 106 87 68 47 29 6 352 347 341 345 350 352 341 318 169 159 150 167 179 171 175 175 170 172 171 170 171 174 174 165 153 145 145 145 163 165 156 160 161 140 131 144 139 137 133 132 134 138 145 154 155 161 172 164 150 144 138 133 133 127 118 115 107 94 79 67 55 43 42 43
303 296 152 206 217 141 275 263 56 74 67 53 51 35 20 8 356 357 13 24 35 25 15 353 341 52 101 100 97 61 40 22 8 352 356 355 355 359 359 346 327 181 167 152 163 172 169 177 176 170 176 176 173 166 172 175 164 159 157 157 174 193 190 180 179 193 194 173 153 135 143 150 149 142 140 143 152 157 163 172 168 160 153 145 142 138 130 124 121 111 94 79 67 44 31 36 39
239 250 42 327 208 144 261 193 84 82 71 55 44 28 15 6 359 5 13 26 33 27 16 347 345 31 75 88 79 51 30 10 6 4 3 0 358 356 347 340 323 294 174 172 161 161 168 177 173 169 175 178 175 164 166 171 165 165 166 171 185 194 192 184 177 193 207 199 174 151 157 168 169 162 158 159 158 163 168 167 168 167 155 148 144 137 136 134 124 113 99 84 72 36 16 21 31
218 221 61 264 232 168 217 138 96 96 75 59 42 24 12 7 5 9 12 26 22 28 17 345 3 13 355 88 72 45 22 7 9 5 359 356 357 353 340 331 318 294 191 180 164 160 167 173 168 164 163 161 165 165 164 165 167 170 165 164 163 163 184 186 179 192 206 209 192 175 177 182 184 184 182 178 175 174 175 176 174 167 153 147 144 142 141 134 124 121 109 91 68 30 16 9 25
232 221 45 255 243 199 198 103 96 94 64 52 39 21 11 7 12 11 9 27 17 24 21 355 8 348 334 82 79 25 12 8 9 356 350 350 354 356 347 329 320 312 233 180 168 163 160 162 161 156 150 144 152 165 165 161 167 170 161 159 155 142 165 183 186 198 204 209 207 194 191 196 198 199 199 194 191 186 183 186 181 168 153 145 143 142 139 136 136 124 97 81 61 34 27 7 11
275 209 94 252 268 356 69 96 97 79 48 37 28 11 13 14 17 13 6 25 20 21 25 5 347 323 334 55 45 9 7 6 360 348 348 349 353 3 1 339 328 339 283 203 159 152 146 146 146 141 142 140 144 158 165 163 170 174 168 166 170 159 167 182 188 203 204 205 214 210 208 205 204 205 210 208 205 196 186 190 185 168 152 145 146 149 153 151 140 116 94 71 40 17 14 357 358
342 3 259 283 36 42 47 92 97 72 46 34 18 357 19 24 18 16 2 21 30 21 25 8 333 325 1 4 2 10 4 358 350 347 351 351 357 7 15 10 11 12 348 9 17 104 130 124 132 134 134 137 140 154 164 168 178 183 181 182 191 190 192 190 192 202 205 204 208 223 231 216 210 213 217 214 211 198 184 187 175 158 152 153 158 163 163 152 136 127 121 106 66 8 5 342 350
334 355 322 2 70 55 28 34 62 62 48 29 14 350 25 38 12 20 6 13 38 26 31 23 345 325 12 347 357 9 352 349 346 349 354 357 2 6 18 22 29 38 38 38 41 81 124 123 136 136 130 140 147 160 174 182 189 191 197 204 204 202 202 195 200 207 210 211 206 220 240 220 215 223 221 216 218 203 188 185 164 153 155 162 170 172 159 144 136 129 123 141 169 328 326 310 340
342 323 300 52 62 52 26 7 14 55 57 29 18 350 18 41 3 18 16 360 41 42 40 35 16 358 20 360 352 355 345 345 345 351 359 2 7 10 16 21 30 41 42 38 42 55 50 98 147 161 164 169 164 175 192 198 207 215 216 217 215 211 206 196 203 210 215 218 211 227 245 221 217 230 234 227 227 207 194 187 160 152 158 169 178 176 157 142 130 105 99 121 139 71 328 304 333
322 316 345 51 45 41 24 6 11 45 45 23 26 1 9 28 2 5 354 322 32 48 45 39 40 45 29 13 357 351 347 347 349 355 4 6 7 10 12 18 24 30 36 34 32 35 37 57 113 213 206 201 186 199 220 216 223 234 234 231 224 217 216 205 199 207 215 216 212 232 238 223 221 230 240 235 233 211 202 193 162 157 163 175 183 178 161 142 123 95 85 85 74 49 6 309 333
318 58 54 55 45 43 22 11 15 17 15 13 24 15 10 13 3 347 330 330 34 39 44 28 42 51 30 15 1 356 353 354 357 0 6 5 3 4 5 8 11 13 21 24 22 20 26 42 29 340 230 218 203 205 227 235 229 232 239 238 229 225 221 212 205 203 207 208 211 238 231 214 210 222 240 236 233 205 198 196 173 166 169 177 184 179 163 139 118 93 75 67 59 53 45 23 19
14 61 60 61 47 41 27 24 22 5 4 10 17 19 22 11 1 346 331 11 36 26 35 15 16 32 20 10 2 358 359 0 3 5 6 3 360 1 359 358 359 1 5 8 12 15 14 13 13 20 324 232 222 209 215 241 239 227 235 240 237 231 223 217 214 204 202 205 208 226 199 187 189 207 212 207 213 185 181 191 179 175 177 179 189 196 182 146 130 102 70 63 62 67 59 34 28
44 69 68 70 64 53 37 35 30 16 2 7 20 17 32 24 0 354 341 4 34 22 12 5 1 4 4 5 2 358 0 3 6 8 8 4 360 358 356 353 352 354 356 357 1 8 9 2 0 5 6 328 220 204 206 239 256 226 224 237 239 228 222 213 197 192 198 204 204 200 185 174 184 207 204 190 185 174 177 181 180 184 187 189 205 221 212 175 148 98 61 56 62 66 48 23 16
45 69 80 79 84 74 45 39 33 26 6 8 24 11 29 45 18 9 352 359 38 28 358 356 354 349 351 356 0 358 360 6 6 8 10 7 1 356 354 354 352 348 346 347 354 3 6 2 357 351 353 353 216 209 215 228 255 243 221 230 227 215 216 192 173 187 192 197 200 191 185 166 171 201 210 199 179 172 176 178 183 190 193 201 219 227 219 202 172 82 62 51 48 39 31 28 352
49 58 81 90 92 81 48 37 26 21 18 14 21 12 17 42 48 31 7 7 27 20 359 352 341 339 344 347 360 358 359 7 5 7 8 6 3 356 352 351 350 346 344 346 353 1 4 3 359 350 349 346 283 235 234 219 240 239 224 228 222 209 202 175 169 189 194 195 193 182 185 172 186 210 210 206 184 181 186 186 193 197 203 218 222 224 221 206 164 65 60 46 35 346 353 11 290
77 62 71 83 84 79 60 42 18 9 18 18 18 12 0 9 53 44 28 33 14 352 346 340 330 335 342 345 1 1 1 8 5 5 4 2 3 358 353 348 347 349 351 350 352 359 3 4 3 356 350 341 311 258 247 228 225 227 222 217 211 205 193 175 178 195 199 198 192 180 183 188 204 206 199 196 187 197 200 197 202 203 215 226 216 217 225 189 94 74 73 57 38 272 259 268 269
90 77 72 75 76 81 69 46 15 5 15 15 11 6 350 355 33 53 44 38 6 344 331 327 328 333 345 352 5 8 2 8 6 5 3 358 0 1 357 351 346 347 351 351 349 357 2 4 6 2 353 338 321 289 257 236 208 211 222 214 202 199 189 179 186 199 199 194 190 182 177 181 180 149 185 195 195 218 224 218 218 209 219 235 228 223 221 110 105 112 174 225 282 264 262 282 288
90 94 89 82 81 86 81 70 26 4 25 7 336 346 14 7 12 41 46 32 5 343 326 328 331 333 354 1 9 15 3 7 7 4 4 359 356 357 359 357 352 346 347 352 352 355 359 1 7 6 0 346 330 322 300 274 231 207 218 218 203 196 193 188 193 201 201 194 176 172 169 167 164 148 175 194 210 240 243 241 236 223 230 240 233 225 199 139 143 182 243 274 309 329 331 321 327
81 99 103 95 90 88 98 115 80 5 30 1 320 339 53 26 346 16 31 23 8 340 323 331 336 336 359 4 9 17 4 6 5 1 4 1 355 352 356 359 357 352 347 350 353 356 359 1 8 11 7 357 345 343 340 330 273 211 195 207 203 198 191 184 194 198 195 191 159 148 148 141 146 140 176 176 261 244 252 257 253 243 245 233 211 202 215 233 216 219 255 274 296 318 310 303 302
89 109 111 102 93 80 70 82 83 104 42 9 335 334 66 44 320 73 48 18 0 337 320 330 341 340 360 358 3 19 12 8 6 360 359 358 358 355 354 357 358 357 352 347 350 358 3 4 10 16 11 2 356 355 1 7 348 196 171 174 190 194 187 179 185 177 161 159 143 133 132 120 108 89 63 31 26 305 292 283 266 256 256 242 212 185 243 273 267 244 310 266 260 296 291 296 294
115 114 115 100 90 75 58 40 35 151 47 11 335 319 36 66 297 51 35 7 352 336 322 330 347 355 4 359 3 18 20 13 8 360 357 359 359 356 354 354 355 357 355 349 348 356 4 6 15 21 13 7 7 6 15 29 42 144 160 161 165 173 180 180 174 166 154 149 141 137 140 139 142 141 131 109 83 329 322 314 297 266 255 246 216 213 232 256 247 233 292 274 268 271 267 294 304
124 130 122 105 98 74 58 45 14 327 38 356 315 302 318 122 301 12 8 353 348 332 324 338 353 4 9 10 4 11 18 13 9 4 1 359 354 352 354 353 352 355 356 352 348 352 0 7 20 26 16 10 17 19 28 39 51 87 115 131 140 152 170 171 161 158 149 143 144 145 149 158 173 187 179 186 208 208 262 307 316 303 228 226 222 222 225 229 221 236 284 280 282 278 266 285 294
141 188 138 121 122 76 47 43 8 349 37 329 308 295 247 167 61 33 10 351 347 331 328 342 355 7 10 13 6 10 17 10 7 9 4 355 350 349 352 352 352 355 357 357 354 353 360 9 20 27 21 17 23 29 35 41 44 59 71 82 102 118 141 155 151 148 143 142 151 152 163 201 210 223 220 234 247 246 256 262 276 259 231 227 224 227 228 220 209 268 292 284 283 275 269 283 292
165 226 234 165 157 69 45 39 5 0 13 320 323 331 186 131 98 62 39 359 348 334 325 337 1 10 8 7 2 12 18 10 4 7 2 353 350 351 349 352 353 354 1 4 359 357 3 11 17 25 26 23 26 34 43 47 49 56 59 63 74 86 104 128 137 137 141 144 146 164 249 285 295 286 249 242 231 243 244 225 229 235 236 238 230 230 226 211 208 234 245 233 230 222 252 281 294
168 234 329 336 337 51 60 43 15 12 353 327 328 315 53 116 134 128 103 21 355 333 318 341 18 9 5 6 2 4 12 12 4 1 1 355 353 353 349 353 356 355 4 8 3 2 8 12 15 22 30 28 28 38 49 53 57 66 68 67 70 73 85 101 112 118 129 132 130 167 233 277 301 312 238 200 170 182 201 202 211 218 226 227 218 209 198 197 202 210 209 204 198 191 208 233 265
47 24 17 0 351 45 68 50 36 20 341 333 329 301 318 355 110 127 137 118 30 330 312 354 28 1 354 0 9 3 357 8 5 359 359 356 356 356 351 354 1 1 3 9 12 13 16 19 21 25 31 34 33 42 54 61 63 68 70 71 77 77 75 83 88 92 101 103 107 135 169 212 271 1 111 187 191 192 188 185 189 185 188 195 200 199 197 201 197 197 208 209 210 218 231 241 254
17 10 25 12 345 347 24 139 70 24 347 337 331 298 293 310 6 7 111 102 57 335 319 8 31 358 346 348 5 9 355 3 1 358 358 357 357 357 357 358 3 8 5 9 19 21 19 23 31 34 33 38 42 45 54 65 67 69 70 67 69 71 69 72 76 78 80 78 82 93 98 98 102 97 102 142 176 188 193 195 196 189 190 200 214 213 208 203 190 190 208 216 225 241 248 253 260
359 2 357 18 346 336 350 153 72 20 359 331 309 272 276 297 331 324 75 82 41 335 333 27 39 357 338 338 1 9 4 9 355 354 356 356 360 0 3 4 4 12 11 10 18 25 27 26 34 42 39 40 47 50 54 63 69 72 71 66 63 64 65 67 70 73 72 71 71 72 76 79 79 85 93 104 123 134 144 166 193 212 218 226 233 230 220 206 192 187 194 213 227 235 237 244 254
349 351 338 352 333 325 348 9 28 10 354 321 306 282 296 316 314 304 106 86 23 318 353 57 62 11 336 331 9 8 7 7 344 351 357 357 4 6 7 9 9 14 15 14 16 24 31 29 36 45 45 44 49 53 54 58 66 71 71 68 63 59 58 61 64 66 66 68 69 69 71 73 72 77 80 83 87 90 97 106 116 124 139 169 190 188 172 167 169 170 169 162 141 45 343 274 271
330 316 299 306 310 315 347 9 38 4 338 311 315 306 304 314 313 317 86 87 19 295 11 93 114 148 272 292 23 26 34 358 330 348 8 5 9 11 11 12 13 17 17 18 20 23 26 28 36 42 41 43 48 52 53 54 58 61 62 63 60 55 56 59 60 62 63 65 66 68 71 72 75 80 83 85 82 81 83 84 89 89 89 91 93 94 91 95 99 103 106 102 89 41 22 7 331
308 297 289 298 309 325 334 3 41 3 337 300 313 308 298 306 308 316 78 86 306 284 343 102 113 212 247 324 34 29 64 6 326 355 13 11 13 13 15 15 16 20 21 21 23 24 24 26 32 36 37 40 44 47 49 51 51 52 53 53 53 53 58 62 60 60 62 64 66 69 70 71 74 78 81 84 84 84 83 83 87 86 85 84 83 84 84 88 91 88 83 76 67 53 38 28 19
299 293 306 315 338 332 322 12 39 354 344 300 311 310 297 301 298 301 95 137 274 358 30 57 28 310 305 32 39 18 25 1 342 8 14 14 17 14 16 19 18 19 21 23 24 23 24 27 30 33 38 41 44 46 49 51 52 54 56 55 55 56 59 63 62 62 63 65 68 70 71 71 72 75 78 81 82 82 81 80 81 83 87 87 85 84 84 86 87 85 81 73 65 57 47 38 38
285 288 327 332 356 342 315 71 20 341 329 297 316 315 296 289 279 230 120 235 36 80 73 78 9 286 337 40 43 31 10 351 349 3 11 17 19 16 16 18 20 20 20 23 25 25 25 27 30 33 37 41 43 46 50 53 54 57 63 66 66 64 63 65 67 67 66 67 68 70 71 71 72 74 76 79 80 79 79 78 75 76 80 83 84 80 77 76 74 74 73 71 67 60 52 45 45
259 313 10 333 356 6 300 340 345 322 308 314 319 305 289 284 258 170 148 143 87 93 99 108 245 254 99 61 30 14 9 4 343 346 2 11 17 20 19 16 17 21 22 23 25 25 25 27 30 33 37 41 42 42 46 57 63 62 67 71 73 73 70 69 69 68 68 68 68 69 71 72 74 74 74 76 77 76 77 77 75 75 74 75 77 74 71 68 66 67 67 66 66 61 55 49 49
79 25 44 321 333 345 275 306 323 309 320 6 333 310 286 260 199 176 135 118 119 127 117 201 250 198 142 112 26 299 323 45 339 336 354 4 15 20 19 15 15 20 21 22 25 27 27 29 33 36 39 43 46 45 45 56 69 71 74 76 76 74 69 63 62 61 64 67 67 68 70 73 75 75 75 76 76 77 77 77 78 77 75 74 74 72 70 67 65 65 64 65 64 61 61 54 51
341 51 83 277 310 301 287 307 320 322 352 26 5 344 308 263 225 179 130 152 192 148 138 230 242 195 178 164 196 243 208 134 56 344 353 2 14 19 17 13 13 18 20 22 28 31 32 34 37 40 42 46 50 54 54 54 62 68 71 71 69 67 62 57 57 60 63 66 67 69 72 74 76 76 77 76 77 77 76 76 76 76 75 73 73 71 70 68 65 64 64 66 64 62 64 60 52
321 231 200 204 296 290 302 324 338 350 293 325 44 49 292 299 264 161 147 224 218 153 169 216 218 204 208 186 184 198 159 134 123 28 20 15 19 20 17 13 11 13 17 23 30 35 35 36 40 42 44 49 52 58 63 61 62 66 68 70 71 71 70 66 65 68 70 70 70 71 71 73 75 76 76 76 77 77 76 76 75 74 73 72 72 70 68 67 65 64 64 65 65 63 63 60 52
299 215 195 294 300 294 314 330 310 274 285 326 36 95 242 294 284 141 130 279 262 209 197 199 194 200 212 193 160 149 133 126 129 58 45 35 30 28 20 13 10 10 16 21 28 34 35 36 41 45 47 51 55 60 67 68 68 69 71 73 73 73 76 74 72 73 74 75 73 70 70 70 72 73 73 75 75 76 76 76 75 74 73 71 70 69 67 66 66 66 65 64 64 63 64 62 56
277 308 326 297 279 290 314 308 269 272 303 327 349 76 141 279 270 143 123 286 276 251 211 191 183 184 201 191 146 143 145 138 146 120 68 44 38 32 21 16 9 11 17 17 22 30 33 36 42 48 50 52 57 62 68 71 73 76 76 75 74 73 76 76 75 74 75 76 74 72 71 70 70 71 72 72 73 74 74 75 75 74 72 71 70 69 68 68 67 65 64 63 63 63 64 65 60
281 316 314 278 218 192 255 266 274 287 307 251 241 210 17 298 258 170 158 285 278 266 198 175 167 165 182 178 153 159 157 147 160 158 141 130 87 27 18 30 14 11 18 18 25 32 32 34 39 46 49 52 59 67 72 75 76 78 77 76 76 75 76 77 76 75 73 73 73 71 72 71 71 73 73 73 72 72 73 74 74 73 72 71 70 70 69 68 66 65 64 63 63 63 62 63 62
306 320 300 267 171 146 228 239 265 312 304 202 205 204 76 320 268 162 134 209 240 319 112 134 140 155 167 165 154 165 169 161 172 180 180 172 163 171 23 41 24 15 15 17 27 35 36 33 36 44 48 50 55 64 75 80 81 81 81 80 80 79 79 78 76 74 72 71 70 69 70 72 73 74 75 76 74 73 74 74 74 74 73 71 69 68 67 67 68 67 66 63 61 59 58 59 58
333 315 295 314 74 4 281 236 137 29 297 218 186 204 128 203 277 1 103 151 140 359 42 138 147 161 159 158 158 167 174 163 168 185 187 179 179 183 176 139 54 23 9 12 20 31 39 36 36 46 52 52 52 57 68 78 81 82 84 85 86 86 85 82 79 77 76 76 75 76 77 78 79 79 78 77 75 76 77 75 74 74 72 71 69 67 65 65 67 68 66 64 61 57 55 55 54
333 318 329 352 354 2 356 313 320 314 276 195 158 73 295 222 251 306 64 82 87 38 31 110 146 162 158 158 160 162 162 160 168 184 184 183 189 191 185 184 177 122 359 5 12 26 39 37 38 46 53 57 57 59 64 73 79 81 81 82 83 84 84 83 82 81 81 82 82 81 81 82 81 79 77 75 73 75 76 75 73 71 70 71 69 68 64 61 61 62 64 63 61 58 53 52 53
341 344 3 4 6 9 336 320 328 301 282 250 171 128 303 265 264 327 72 59 54 58 46 54 103 141 152 155 155 156 160 167 177 180 182 189 200 202 200 205 199 185 198 277 347 26 40 37 39 42 47 57 64 66 67 71 79 86 89 88 86 84 85 87 87 86 86 85 84 81 80 82 82 78 77 77 75 74 74 73 73 70 69 71 71 70 65 60 57 55 57 60 60 57 52 48 48
314 314 21 32 36 34 302 322 323 296 303 311 303 132 271 285 312 21 74 65 48 63 61 45 49 71 107 130 145 159 173 184 188 187 190 196 205 209 210 216 213 200 203 213 218 209 174 89 60 44 38 52 63 68 70 70 75 87 95 97 96 90 90 96 98 97 95 92 90 88 86 86 86 84 81 81 80 77 74 72 72 71 68 67 69 71 67 60 55 50 49 54 57 55 50 45 39
273 296 72 29 79 158 252 265 263 286 311 303 273 185 259 256 107 41 52 72 83 95 93 75 57 53 69 94 167 181 196 202 194 194 200 205 209 211 211 216 216 213 213 213 218 220 201 189 190 168 149 109 84 77 75 76 81 89 94 101 105 100 98 106 112 109 103 97 97 100 98 92 90 88 85 82 81 79 75 71 69 67 65 63 63 66 67 62 57 52 44 44 51 51 48 42 33
291 345 56 240 216 136 242 278 269 331 321 277 265 278 294 343 61 19 25 31 147 139 140 149 168 162 144 216 236 220 220 215 203 200 205 210 212 212 213 215 216 216 217 217 220 223 213 206 205 193 187 185 164 149 131 119 118 114 113 116 118 117 116 120 122 116 109 106 106 104 102 99 95 91 88 83 77 75 74 68 64 60 56 55 55 56 61 59 54 52 42 36 41 43 43 41 28
9 336 233 230 66 106 156 291 316 339 288 276 306 315 317 332 332 338 345 291 209 182 181 180 187 196 202 219 226 225 227 222 214 209 209 214 216 215 215 216 218 219 220 221 222 224 223 216 211 207 205 202 193 188 188 186 181 175 167 157 152 147 142 141 137 129 124 120 114 103 107 115 105 91 85 80 71 66 67 61 54 53 47 43 44 44 49 51 45 42 37 29 29 31 33 32 23
28 284 257 94 67 20 314 310 312 320 310 295 317 340 326 308 337 339 330 293 186 170 175 187 213 222 228 235 229 224 222 219 222 218 213 217 219 220 219 217 219 219 221 223 221 221 227 226 220 218 216 213 212 212 208 208 210 206 198 195 195 187 177 173 168 163 158 149 146 155 164 150 120 99 88 87 78 56 58 54 41 42 36 30 29 25 31 37 33 27 24 19 18 19 21 19 13
352 320 319 35 131 210 295 306 258 299 310 305 327 340 318 283 7 341 340 17 42 56 88 73 336 330 329 312 296 275 245 222 223 219 217 222 224 226 225 222 221 220 221 222 219 220 226 230 227 224 221 218 219 222 220 216 217 216 213 213 211 208 207 204 200 198 190 184 186 184 182 175 154 157 160 124 121 77 44 31 18 14 0 2 6 3 7 15 14 9 7 5 4 6 8 5 0
357 335 347 355 100 158 225 228 139 296 297 305 321 311 285 293 343 338 11 40 30 29 40 31 17 20 14 15 22 346 317 291 264 240 228 230 230 230 230 228 227 225 223 221 221 222 226 230 231 229 227 225 224 226 225 221 219 220 219 219 219 220 220 220 221 219 214 213 215 208 204 205 200 201 206 205 200 215 258 287 299 305 309 320 329 335 340 344 348 349 349 350 350 351 352 351 348
40 241 61 18 32 83 325 313 29 41 257 250 298 294 283 288 325 352 37 50 43 33 25 349 322 0 5 1 6 283 283 288 294 295 285 266 252 243 236 231 227 224 223 223 223 224 225 228 231 231 231 231 230 230 230 227 225 224 224 222 222 224 226 228 230 230 228 227 228 228 225 225 226 225 226 231 237 242 253 267 278 285 291 293 297 306 310 314 321 326 329 331 333 334 336 337 338